Weather History for Pinedale, WY

Change the Weather History Date:

Tuesday, January 15, 2013

  Actual Average (KBPI) Record (KBPI)
Temperature  
Mean Temperature 2 °F 11 °F  
Max Temperature 19 °F 26 °F 47 °F (2012)
Min Temperature -14 °F -4 °F -30 °F (2007)
Degree Days  
Heating Degree Days 62 54  
Month to date heating degree days 810  
Since 1 July heating degree days 5249  
Cooling Degree Days 0 0  
Month to date cooling degree days 0  
Year to date cooling degree days 0  
Moisture  
Dew Point -6 °F    
Average Humidity 77    
Maximum Humidity 92    
Minimum Humidity 66    
Precipitation  
Precipitation 0.00 in 0.01 in 0.09 in (1995)
Month to date precipitation 0.16  
Year to date precipitation 0.16  
Sea Level Pressure  
Sea Level Pressure 30.16 in    
Wind  
Wind Speed 5 mph (East)    
Max Wind Speed 23 mph    
Max Gust Speed 26 mph    
Visibility 10 miles    
Events      
T = Trace of Precipitation, MM = Missing Value Source: NWS Daily Summary

Daily Weather History Graph

Daily Weather History Graph

Search for Another Location

Airport:

Trip Planner

Search our weather history database for the weather conditions in past years. The results will help you decide how hot, cold, wet, or windy it might be!

Date:

Astronomy

Jan. 15, 2013 Rise Set
Actual Time 7:46 AM MST 5:11 PM MST
Civil Twilight 7:15 AM MST 5:42 PM MST
Nautical Twilight 6:40 AM MST 6:17 PM MST
Astronomical Twilight 6:06 AM MST 6:51 PM MST
Moon 9:47 AM MST (1/15) 10:12 PM MST (1/15)
Length of Visible Light 10h 26m
Length of Day
9h 24m
Waxing Crescent, 20% of the Moon is Illuminated
Jan 15
Waxing Crescent
Jan 18
First Quarter
Jan 26
Full
Feb 3
Last Quarter
Feb 10
New

Hourly Weather History & Observations

Time (MST) Temp. Windchill Dew Point Humidity Pressure Visibility Wind Dir Wind Speed Gust Speed Precip Events Conditions
12:15 AM -14.8 °F -30.8 °F -18.4 °F 84% 30.03 in 10.0 mi ESE 6.9 mph - N/A   Mostly Cloudy
12:35 AM -14.8 °F -29.1 °F -18.4 °F 84% 30.03 in 10.0 mi ESE 5.8 mph - N/A   Scattered Clouds
12:55 AM -13.0 °F -25.1 °F -18.4 °F 77% 30.03 in 10.0 mi SE 4.6 mph - N/A   Clear
1:15 AM -13.0 °F -28.6 °F -18.4 °F 77% 30.04 in 10.0 mi SE 6.9 mph - N/A   Clear
1:35 AM -13.0 °F -28.6 °F -16.6 °F 84% 30.05 in 10.0 mi East 6.9 mph - N/A   Clear
1:55 AM -13.0 °F -22.7 °F -16.6 °F 84% 30.05 in 10.0 mi SSE 3.5 mph - N/A   Clear
2:15 AM -11.2 °F - -16.6 °F 77% 30.05 in 10.0 mi Calm Calm - N/A   Clear
2:35 AM -13.0 °F -25.1 °F -16.6 °F 84% 30.06 in 10.0 mi ESE 4.6 mph - N/A   Clear
2:55 AM -13.0 °F -27.0 °F -16.6 °F 84% 30.05 in 10.0 mi SE 5.8 mph - N/A   Mostly Cloudy
3:15 AM -13.0 °F -27.0 °F -18.4 °F 77% 30.06 in 10.0 mi ESE 5.8 mph - N/A   Mostly Cloudy
3:55 AM -11.2 °F -24.8 °F -16.6 °F 77% 30.06 in 10.0 mi SE 5.8 mph - N/A   Overcast
4:15 AM -9.4 °F -20.9 °F -14.8 °F 77% 30.08 in 10.0 mi SE 4.6 mph - N/A   Overcast
4:35 AM -9.4 °F -20.9 °F -14.8 °F 77% 30.07 in 10.0 mi SE 4.6 mph - N/A   Overcast
4:55 AM -9.4 °F -24.3 °F -14.8 °F 77% 30.08 in 10.0 mi ESE 6.9 mph - N/A   Overcast
5:15 AM -9.4 °F -20.9 °F -14.8 °F 77% 30.09 in 10.0 mi SE 4.6 mph - N/A   Scattered Clouds
5:35 AM -11.2 °F -23.0 °F -16.6 °F 77% 30.09 in 10.0 mi ESE 4.6 mph 9.2 mph N/A   Scattered Clouds
5:55 AM -11.2 °F - -16.6 °F 77% 30.10 in 10.0 mi Calm Calm - N/A   Scattered Clouds
6:15 AM -13.0 °F - -16.6 °F 84% 30.09 in 10.0 mi Calm Calm - N/A   Mostly Cloudy
6:35 AM -14.8 °F - -18.4 °F 84% 30.10 in 10.0 mi Calm Calm - N/A   Scattered Clouds
6:55 AM -14.8 °F -24.8 °F -18.4 °F 84% 30.13 in 10.0 mi NNW 3.5 mph - N/A   Clear
7:15 AM -13.0 °F - -18.4 °F 77% 30.13 in 10.0 mi Calm Calm - N/A   Clear
7:35 AM -9.4 °F -20.9 °F -14.8 °F 77% 30.13 in 10.0 mi NNE 4.6 mph - N/A   Clear
7:55 AM -13.0 °F - -16.6 °F 84% 30.15 in 10.0 mi Calm Calm - N/A   Clear
8:15 AM -9.4 °F - -14.8 °F 77% 30.15 in 10.0 mi Calm Calm - N/A   Clear
8:35 AM -9.4 °F - -14.8 °F 77% 30.16 in 10.0 mi Calm Calm - N/A   Clear
8:55 AM -7.6 °F - -14.8 °F 71% 30.17 in 10.0 mi Calm Calm - N/A   Clear
9:15 AM -5.8 °F -16.7 °F -13.0 °F 71% 30.17 in 10.0 mi SE 4.6 mph - N/A   Clear
9:35 AM -4.0 °F -16.3 °F -11.2 °F 71% 30.18 in 10.0 mi ESE 5.8 mph - N/A   Clear
9:55 AM -4.0 °F - -9.4 °F 78% 30.18 in 10.0 mi Calm Calm - N/A   Clear
10:15 AM -4.0 °F - -9.4 °F 78% 30.18 in 10.0 mi Calm Calm - N/A   Clear
10:35 AM -2.2 °F -10.4 °F -9.4 °F 71% 30.17 in 10.0 mi East 3.5 mph - N/A   Clear
10:55 AM -0.4 °F -10.4 °F -7.6 °F 72% 30.18 in 10.0 mi East 4.6 mph - N/A   Clear
11:15 AM 1.4 °F -8.3 °F -7.6 °F 66% 30.17 in 10.0 mi ESE 4.6 mph - N/A   Clear
11:35 AM 1.4 °F -6.2 °F -5.8 °F 72% 30.17 in 10.0 mi East 3.5 mph - N/A   Clear
11:55 AM 3.2 °F - -5.8 °F 66% 30.18 in 10.0 mi Calm Calm - N/A   Clear
12:35 PM 5.0 °F -4.1 °F -4.0 °F 66% 30.18 in 10.0 mi East 4.6 mph - N/A   Clear
12:55 PM 5.0 °F -6.9 °F -4.0 °F 66% 30.17 in 10.0 mi East 6.9 mph - N/A   Clear
1:15 PM 5.0 °F -2.1 °F -4.0 °F 66% 30.17 in 10.0 mi ESE 3.5 mph - N/A   Clear
1:35 PM 6.8 °F -2.0 °F -2.2 °F 67% 30.16 in 10.0 mi East 4.6 mph - N/A   Clear
1:55 PM 8.6 °F - -0.4 °F 67% 30.15 in 10.0 mi Calm Calm - N/A   Clear
2:15 PM 19.4 °F 5.5 °F 10.4 °F 68% 30.14 in 10.0 mi WNW 15.0 mph 20.7 mph N/A   Clear
2:35 PM 19.4 °F 4.1 °F 12.2 °F 74% 30.13 in 5.0 mi WNW 18.4 mph 25.3 mph N/A   Haze
2:55 PM 17.6 °F 6.4 °F 10.4 °F 73% 30.15 in 10.0 mi WNW 9.2 mph 17.3 mph N/A   Clear
3:15 PM 17.6 °F 3.7 °F 10.4 °F 73% 30.14 in 10.0 mi West 13.8 mph 20.7 mph N/A   Clear
3:35 PM 19.4 °F 6.6 °F 10.4 °F 68% 30.15 in 10.0 mi WNW 12.7 mph 25.3 mph N/A   Clear
3:55 PM 17.6 °F 0.1 °F 10.4 °F 73% 30.14 in 7.0 mi WNW 23.0 mph 26.5 mph N/A   Clear
4:35 PM 14.0 °F 0.5 °F 8.6 °F 79% 30.17 in 10.0 mi West 11.5 mph 18.4 mph N/A   Clear
5:15 PM 14.0 °F 8.2 °F 6.8 °F 73% 30.18 in 10.0 mi NNW 3.5 mph - N/A   Clear
5:35 PM 14.0 °F 3.9 °F 8.6 °F 79% 30.18 in 10.0 mi West 6.9 mph - N/A   Clear
5:55 PM 14.0 °F -2.0 °F 8.6 °F 79% 30.19 in 10.0 mi NW 16.1 mph 20.7 mph N/A   Clear
6:15 PM 14.0 °F 0.5 °F 8.6 °F 79% 30.19 in 10.0 mi NW 11.5 mph 16.1 mph N/A   Clear
6:35 PM 10.4 °F -4.1 °F 5.0 °F 79% 30.20 in 10.0 mi NW 11.5 mph - N/A   Clear
6:55 PM 12.2 °F 2.9 °F 5.0 °F 73% 30.21 in 10.0 mi ENE 5.8 mph - N/A   Clear
7:15 PM 8.6 °F -1.3 °F 3.2 °F 79% 30.22 in 10.0 mi East 5.8 mph - N/A   Clear
7:35 PM 8.6 °F -3.7 °F 1.4 °F 73% 30.23 in 10.0 mi East 8.1 mph - N/A   Clear
7:55 PM 5.0 °F -4.1 °F -0.4 °F 78% 30.23 in 10.0 mi East 4.6 mph - N/A   Clear
8:15 PM 5.0 °F -6.9 °F 1.4 °F 85% 30.25 in 10.0 mi ENE 6.9 mph - N/A   Clear
8:35 PM 5.0 °F - 1.4 °F 85% 30.26 in 10.0 mi Calm Calm - N/A   Clear
8:55 PM 3.2 °F -7.8 °F -0.4 °F 85% 30.26 in 10.0 mi East 5.8 mph - N/A   Clear
9:15 PM 5.0 °F - 1.4 °F 85% 30.26 in 10.0 mi Calm Calm - N/A   Clear
9:35 PM 3.2 °F -6.2 °F -0.4 °F 85% 30.26 in 10.0 mi NNE 4.6 mph - N/A   Clear
9:55 PM 5.0 °F -4.1 °F 1.4 °F 85% 30.26 in 10.0 mi NNE 4.6 mph - N/A   Clear
10:15 PM 12.2 °F 0.7 °F 5.0 °F 73% 30.27 in 10.0 mi NW 8.1 mph - N/A   Scattered Clouds
10:35 PM 10.4 °F -0.4 °F 5.0 °F 79% 30.27 in 10.0 mi North 6.9 mph - N/A   Clear
11:15 PM 1.4 °F -9.9 °F -2.2 °F 85% 30.28 in 10.0 mi NE 5.8 mph - N/A   Clear
11:35 PM 1.4 °F -8.3 °F -2.2 °F 85% 30.27 in 10.0 mi ESE 4.6 mph - N/A   Clear
11:55 PM 1.4 °F - -0.4 °F 92% 30.28 in 10.0 mi Calm Calm - N/A   Clear